Fecha/Hora, TempHumedad
1448401288, 23.00, 38.00
1448401308, 23.00, 37.00
1448401328, 22.00, 39.00
1448401348, 22.00, 38.00
1448401368, 21.00, 38.00
1448401388, 20.00, 39.00
1448401408, 20.00, 39.00
1448401428, 19.00, 39.00
1448401448, 19.00, 39.00
1448401468, 18.00, 40.00
1448401488, 18.00, 40.00
1448401508, 17.00, 40.00
1448401528, 17.00, 40.00
1448401548, 17.00, 40.00
1448401568, 17.00, 40.00
1448401588, 16.00, 41.00
1448401608, 16.00, 41.00
1448401628, 16.00, 41.00
1448401648, 16.00, 41.00
1448401668, 16.00, 41.00
1448401688, 16.00, 41.00
1448401708, 16.00, 42.00
1448401728, 15.00, 42.00
1448401748, 15.00, 42.00
1448401768, 15.00, 42.00
1448401788, 15.00, 42.00
1448401808, 15.00, 42.00
1448401828, 15.00, 42.00
1448401848, 15.00, 42.00
1448401868, 15.00, 42.00
1448401888, 15.00, 42.00
1448401908, 15.00, 42.00
1448401928, 15.00, 42.00
1448401948, 15.00, 42.00
1448401968, 15.00, 42.00
1448401988, 15.00, 42.00
1448402008, 15.00, 42.00
1448402028, 15.00, 42.00
1448402048, 15.00, 43.00
1448402068, 15.00, 43.00
1448402089, 15.00, 43.00
1448402109, 15.00, 43.00
1448402129, 15.00, 43.00
1448402149, 15.00, 43.00
1448402169, 15.00, 43.00
1448402189, 15.00, 43.00
1448402209, 15.00, 43.00
1448402229, 15.00, 43.00
1448402249, 15.00, 43.00
1448402269, 15.00, 43.00
1448402289, 15.00, 43.00
1448402309, 15.00, 43.00
1448402329, 15.00, 43.00
1448402349, 15.00, 43.00
1448402369, 15.00, 43.00
1448402389, 15.00, 44.00
1448402409, 15.00, 44.00
1448402429, 15.00, 44.00
1448402449, 15.00, 44.00
1448402469, 14.00, 45.00
1448402489, 15.00, 44.00
1448402509, 14.00, 45.00
1448402529, 15.00, 44.00
1448402549, 15.00, 44.00
1448402569, 14.00, 45.00
1448402589, 14.00, 45.00
1448402609, 15.00, 44.00
1448402629, 14.00, 45.00
1448402649, 15.00, 44.00
1448402669, 14.00, 45.00
1448402689, 14.00, 45.00
1448402709, 14.00, 45.00
1448402729, 14.00, 45.00
1448402749, 14.00, 45.00
1448402769, 15.00, 44.00
1448402789, 14.00, 45.00
1448402809, 15.00, 45.00
1448402829, 14.00, 46.00
1448402850, 15.00, 45.00
1448402870, 15.00, 45.00
1448402890, 14.00, 46.00
1448402910, 15.00, 45.00
1448402930, 14.00, 46.00
1448402950, 14.00, 46.00
1448402970, 14.00, 46.00
1448402990, 14.00, 46.00
1448403010, 15.00, 45.00
1448403030, 14.00, 46.00
1448403050, 14.00, 46.00
1448403070, 14.00, 46.00
1448403090, 14.00, 46.00
1448403110, 14.00, 46.00
1448403130, 14.00, 46.00
1448403150, 14.00, 46.00
1448403170, 15.00, 45.00
1448403190, 14.00, 46.00
1448403210, 15.00, 45.00
1448403230, 14.00, 46.00
1448403250, 14.00, 46.00
1448403270, 14.00, 46.00
1448403290, 14.00, 46.00
1448403310, 14.00, 46.00
1448403330, 14.00, 46.00
1448403350, 15.00, 45.00
1448403370, 14.00, 46.00
1448403390, 14.00, 46.00
1448403410, 14.00, 46.00
1448403430, 14.00, 46.00
1448403450, 14.00, 46.00
1448403470, 14.00, 46.00
1448403490, 14.00, 46.00
1448403510, 15.00, 45.00
1448403530, 14.00, 46.00
1448403550, 14.00, 46.00
1448403570, 14.00, 46.00
1448403590, 14.00, 46.00
1448403610, 15.00, 45.00
1448403630, 15.00, 46.00
1448403650, 14.00, 46.00
1448403670, 14.00, 47.00
1448403690, 14.00, 47.00
1448403710, 14.00, 46.00
1448403730, 14.00, 46.00
1448403750, 14.00, 47.00
1448403770, 14.00, 47.00
1448403790, 15.00, 46.00
1448403810, 14.00, 47.00
1448403830, 15.00, 46.00
1448403850, 14.00, 47.00
1448403870, 14.00, 47.00
1448403890, 14.00, 47.00
1448403910, 14.00, 47.00
1448403931, 15.00, 46.00
1448403951, 15.00, 46.00
1448403971, 14.00, 47.00
1448403991, 14.00, 47.00
1448404011, 15.00, 46.00
1448404031, 14.00, 47.00
1448404051, 14.00, 47.00
1448404071, 14.00, 47.00
1448404091, 14.00, 47.00
1448404111, 14.00, 47.00
1448404131, 14.00, 47.00
1448404151, 14.00, 47.00
1448404171, 14.00, 47.00
1448404191, 14.00, 47.00
1448404211, 14.00, 48.00
1448404231, 14.00, 48.00
1448404251, 14.00, 48.00
1448404271, 14.00, 48.00
1448404291, 14.00, 48.00
1448404311, 14.00, 48.00
1448404331, 14.00, 48.00
1448404351, 14.00, 48.00
1448404371, 14.00, 48.00
1448404391, 14.00, 48.00
1448404411, 14.00, 48.00
1448404432, 14.00, 48.00
1448404452, 14.00, 48.00
1448404472, 14.00, 48.00
1448404492, 14.00, 48.00
1448404512, 14.00, 48.00
1448404532, 14.00, 49.00
1448404552, 14.00, 49.00
1448404572, 14.00, 49.00
1448404592, 14.00, 49.00
1448404612, 14.00, 49.00
1448404632, 14.00, 49.00
1448404652, 14.00, 49.00
1448404672, 14.00, 49.00
1448404692, 14.00, 49.00
1448404712, 14.00, 49.00
1448404732, 14.00, 49.00
1448404752, 14.00, 49.00
1448404772, 14.00, 49.00
1448404792, 14.00, 49.00
1448404812, 14.00, 49.00
1448404832, 14.00, 49.00
1448404852, 14.00, 49.00
1448404872, 14.00, 49.00
1448404892, 14.00, 49.00
1448404912, 14.00, 49.00
1448404932, 14.00, 50.00
1448404952, 14.00, 49.00
1448404972, 14.00, 50.00
1448404992, 14.00, 50.00
1448405012, 14.00, 50.00
1448405032, 14.00, 50.00
1448405052, 14.00, 50.00
1448405072, 14.00, 50.00
1448405092, 14.00, 50.00
1448405112, 14.00, 50.00
1448405132, 14.00, 50.00
1448405152, 14.00, 50.00
1448405172, 14.00, 50.00
1448405192, 14.00, 50.00
1448405212, 14.00, 50.00
1448405232, 14.00, 50.00
1448405253, 14.00, 50.00
1448405273, 14.00, 50.00
1448405293, 14.00, 50.00
1448405313, 14.00, 50.00
1448405333, 14.00, 50.00
1448405353, 14.00, 50.00
1448405373, 14.00, 50.00
1448405393, 14.00, 50.00
1448405413, 14.00, 50.00
1448405433, 14.00, 50.00
1448405453, 14.00, 50.00
1448405473, 14.00, 50.00
1448405493, 14.00, 50.00
1448405513, 14.00, 50.00
1448405533, 14.00, 50.00
1448405553, 14.00, 50.00
1448405573, 14.00, 50.00
1448405593, 14.00, 50.00
1448405613, 14.00, 50.00
1448405633, 14.00, 50.00
1448405653, 14.00, 50.00
1448405673, 14.00, 50.00
1448405693, 14.00, 50.00
1448405713, 14.00, 50.00
1448405733, 14.00, 50.00
1448405753, 14.00, 50.00
1448405773, 14.00, 50.00
1448405793, 14.00, 50.00
1448405813, 14.00, 50.00
1448405833, 14.00, 50.00
1448405853, 14.00, 50.00
1448405873, 14.00, 50.00
1448405893, 14.00, 50.00
1448405913, 14.00, 50.00
1448405933, 14.00, 50.00
1448405953, 14.00, 50.00
1448405973, 14.00, 50.00
1448405993, 14.00, 50.00
1448406013, 14.00, 50.00
1448406033, 14.00, 50.00
1448406053, 14.00, 50.00
1448406073, 14.00, 50.00
1448406093, 14.00, 50.00
1448406113, 14.00, 50.00
1448406134, 14.00, 50.00
1448406154, 14.00, 50.00
1448406174, 14.00, 50.00
1448406194, 14.00, 50.00
1448406214, 14.00, 49.00
1448406234, 14.00, 49.00
1448406254, 14.00, 49.00
1448406274, 14.00, 49.00
1448406294, 14.00, 49.00
1448406314, 14.00, 49.00
1448406334, 14.00, 49.00
1448406354, 14.00, 49.00
1448406374, 14.00, 49.00
1448406394, 14.00, 49.00
1448406414, 14.00, 49.00
1448406434, 14.00, 49.00
1448406454, 14.00, 49.00
1448406474, 14.00, 49.00
1448406494, 14.00, 49.00
1448406514, 14.00, 49.00
1448406534, 14.00, 49.00
1448406554, 14.00, 49.00
1448406574, 14.00, 49.00
1448406594, 14.00, 49.00
1448406614, 14.00, 49.00
1448406634, 14.00, 49.00
1448406654, 14.00, 49.00
1448406674, 14.00, 49.00
1448406694, 14.00, 48.00
1448406714, 14.00, 48.00
1448406734, 14.00, 48.00
1448406754, 14.00, 48.00
1448406774, 14.00, 48.00
1448406794, 14.00, 49.00
1448406814, 14.00, 48.00
1448406834, 14.00, 48.00
1448406854, 14.00, 48.00
1448406874, 14.00, 48.00
1448406894, 14.00, 48.00
1448406915, 14.00, 48.00
1448406935, 14.00, 48.00
1448406955, 14.00, 48.00
1448406975, 14.00, 48.00
1448406995, 14.00, 48.00
1448407015, 14.00, 48.00
1448407035, 14.00, 48.00
1448407055, 14.00, 48.00
1448407075, 14.00, 48.00
1448407095, 14.00, 48.00
1448407115, 14.00, 48.00
1448407135, 14.00, 48.00
1448407155, 14.00, 48.00
1448407175, 14.00, 48.00
1448407195, 14.00, 48.00
1448407215, 14.00, 48.00
1448407235, 14.00, 48.00
1448407255, 14.00, 48.00
1448407275, 14.00, 48.00
1448407295, 14.00, 48.00
1448407315, 14.00, 48.00
1448407335, 14.00, 48.00
1448407355, 14.00, 48.00
1448407375, 14.00, 48.00
1448407395, 14.00, 48.00
1448407415, 14.00, 48.00
1448407435, 14.00, 48.00
1448407455, 14.00, 47.00
1448407475, 14.00, 47.00
1448407495, 14.00, 47.00
1448407515, 14.00, 47.00
1448407535, 14.00, 47.00
1448407555, 14.00, 47.00
1448407575, 14.00, 47.00
1448407595, 14.00, 47.00
1448407615, 14.00, 47.00
1448407635, 14.00, 47.00
1448407655, 14.00, 47.00
1448407676, 14.00, 47.00
1448407696, 14.00, 47.00
1448407716, 14.00, 47.00
1448407736, 14.00, 47.00
1448407756, 14.00, 47.00
1448407776, 14.00, 47.00
1448407796, 14.00, 47.00
1448407816, 14.00, 47.00
1448407836, 14.00, 47.00
1448407856, 14.00, 47.00
1448407876, 14.00, 47.00
1448407896, 14.00, 47.00
1448407916, 14.00, 47.00
1448407936, 14.00, 47.00
1448407956, 14.00, 47.00
1448407976, 14.00, 47.00
1448407996, 14.00, 47.00
1448408016, 14.00, 47.00
1448408036, 14.00, 47.00
1448408056, 14.00, 47.00
1448408076, 14.00, 47.00
1448408096, 14.00, 47.00
1448408116, 14.00, 47.00
1448408136, 14.00, 47.00
1448408156, 14.00, 47.00
1448408176, 14.00, 47.00
1448408196, 14.00, 47.00
1448408216, 14.00, 47.00
1448408236, 14.00, 47.00
1448408256, 14.00, 47.00
1448408277, 14.00, 47.00
1448408297, 14.00, 47.00
1448408317, 14.00, 47.00
1448408337, 14.00, 47.00
1448408357, 14.00, 47.00
1448408377, 14.00, 47.00
1448408397, 14.00, 47.00
1448408417, 14.00, 47.00
1448408437, 14.00, 47.00
1448408457, 14.00, 47.00
1448408477, 14.00, 47.00
1448408497, 14.00, 47.00
1448408517, 14.00, 47.00
1448408537, 14.00, 47.00
1448408557, 14.00, 47.00
1448408577, 14.00, 47.00
1448408597, 14.00, 47.00
1448408617, 14.00, 47.00
1448408637, 14.00, 47.00
1448408657, 14.00, 47.00
1448408677, 14.00, 47.00
1448408697, 14.00, 47.00
1448408717, 14.00, 47.00
1448408737, 14.00, 47.00
1448408757, 14.00, 47.00
1448408777, 14.00, 47.00
1448408797, 14.00, 47.00
1448408817, 14.00, 47.00
1448408837, 14.00, 47.00
1448408857, 14.00, 47.00
1448408877, 14.00, 47.00
1448408897, 14.00, 47.00
1448408917, 14.00, 47.00
1448408937, 14.00, 47.00
1448408957, 14.00, 47.00
1448408977, 14.00, 47.00
1448408997, 14.00, 47.00
1448409017, 14.00, 47.00
1448409037, 14.00, 47.00
1448409057, 14.00, 47.00
1448409077, 14.00, 47.00
1448409097, 14.00, 47.00
1448409117, 14.00, 47.00
1448409137, 14.00, 47.00
1448409157, 14.00, 47.00
1448409177, 14.00, 47.00
1448409197, 14.00, 47.00
1448409218, 14.00, 47.00
1448409238, 14.00, 47.00
1448409258, 14.00, 47.00
1448409278, 14.00, 47.00
1448409298, 14.00, 47.00
1448409318, 14.00, 47.00
1448409338, 14.00, 47.00
1448409358, 14.00, 47.00
1448409378, 14.00, 47.00
1448409398, 14.00, 47.00
1448409418, 14.00, 47.00
1448409438, 14.00, 47.00
1448409458, 14.00, 47.00
1448409478, 14.00, 47.00
1448409498, 14.00, 47.00
1448409518, 14.00, 47.00
1448409538, 14.00, 47.00
1448409558, 14.00, 47.00
1448409578, 14.00, 47.00
1448409598, 14.00, 47.00
1448409618, 14.00, 47.00
1448409638, 14.00, 47.00
1448409658, 14.00, 47.00
1448409678, 14.00, 47.00
1448409698, 14.00, 47.00
1448409718, 14.00, 47.00
1448409738, 14.00, 47.00
1448409758, 14.00, 47.00
1448409778, 14.00, 47.00
1448409798, 14.00, 47.00
1448409818, 14.00, 47.00
1448409838, 14.00, 47.00
1448409858, 14.00, 47.00
1448409878, 14.00, 47.00
1448409898, 14.00, 47.00
1448409918, 14.00, 47.00
1448409938, 14.00, 47.00
1448409958, 14.00, 47.00
1448409978, 14.00, 47.00
1448409998, 14.00, 47.00
1448410018, 14.00, 47.00
1448410038, 14.00, 47.00
1448410058, 14.00, 47.00
1448410078, 14.00, 47.00
1448410098, 14.00, 47.00
1448410118, 14.00, 47.00
1448410139, 14.00, 47.00
1448410159, 14.00, 47.00
1448410179, 14.00, 47.00
1448410199, 14.00, 47.00
1448410219, 14.00, 47.00
1448410239, 14.00, 47.00
1448410259, 14.00, 47.00
1448410279, 14.00, 47.00
1448410299, 14.00, 47.00
1448410319, 14.00, 47.00
1448410339, 14.00, 47.00
1448410359, 14.00, 47.00
1448410379, 14.00, 47.00
1448410399, 14.00, 47.00
1448410419, 14.00, 47.00
1448410439, 14.00, 47.00
1448410459, 14.00, 47.00
1448410479, 14.00, 47.00
1448410499, 14.00, 47.00
1448410519, 14.00, 47.00
1448410539, 14.00, 47.00
1448410559, 14.00, 47.00
1448410579, 14.00, 46.00
1448410599, 14.00, 46.00
1448410619, 14.00, 46.00
1448410639, 14.00, 47.00
1448410659, 14.00, 46.00
1448410679, 14.00, 46.00
1448410699, 14.00, 46.00
1448410719, 14.00, 46.00
1448410740, 14.00, 46.00
1448410760, 14.00, 46.00
1448410780, 14.00, 46.00
1448410800, 14.00, 46.00
1448410820, 14.00, 46.00
1448410840, 14.00, 46.00
1448410860, 14.00, 46.00
1448410880, 14.00, 46.00
1448410900, 14.00, 46.00
1448410920, 14.00, 46.00
1448410940, 14.00, 46.00
1448410960, 14.00, 46.00
1448410980, 14.00, 46.00
1448411000, 14.00, 46.00
1448411020, 14.00, 46.00
1448411040, 14.00, 46.00
1448411060, 14.00, 46.00
1448411080, 14.00, 46.00
1448411100, 14.00, 46.00
1448411120, 14.00, 46.00
1448411140, 14.00, 46.00
1448411160, 14.00, 46.00
1448411180, 14.00, 46.00
1448411200, 14.00, 46.00
1448411220, 14.00, 46.00
1448411240, 14.00, 46.00
1448411260, 14.00, 46.00
1448411280, 14.00, 46.00
1448411300, 14.00, 46.00
1448411320, 14.00, 46.00
1448411340, 14.00, 46.00
1448411360, 14.00, 46.00
1448411380, 14.00, 46.00
1448411400, 14.00, 46.00
1448411420, 14.00, 46.00
1448411440, 14.00, 46.00
1448411460, 14.00, 46.00
1448411481, 14.00, 46.00
1448411501, 14.00, 46.00
1448411521, 14.00, 46.00
1448411541, 14.00, 46.00
1448411561, 14.00, 46.00
1448411581, 14.00, 46.00
1448411601, 14.00, 46.00
1448411621, 14.00, 46.00
1448411641, 14.00, 46.00
1448411661, 14.00, 46.00
1448411681, 14.00, 46.00
1448411701, 14.00, 46.00
1448411721, 14.00, 46.00
1448411741, 14.00, 46.00
1448411761, 14.00, 46.00
1448411781, 14.00, 46.00
1448411801, 14.00, 46.00
1448411821, 14.00, 46.00
1448411841, 14.00, 46.00
1448411861, 14.00, 46.00
1448411881, 14.00, 46.00
1448411901, 14.00, 46.00
1448411921, 14.00, 46.00
1448411941, 14.00, 46.00
1448411961, 14.00, 46.00
1448411981, 14.00, 46.00
1448412001, 14.00, 46.00
1448412021, 14.00, 46.00
1448412041, 14.00, 46.00
1448412061, 14.00, 46.00
1448412081, 14.00, 46.00
1448412101, 14.00, 46.00
1448412121, 14.00, 46.00
1448412141, 14.00, 46.00
1448412161, 14.00, 46.00
1448412181, 14.00, 46.00
1448412201, 14.00, 46.00
1448412222, 14.00, 46.00
1448412242, 14.00, 46.00
1448412262, 14.00, 46.00
1448412282, 14.00, 46.00
1448412302, 14.00, 46.00
1448412322, 14.00, 46.00
1448412342, 14.00, 46.00
1448412362, 14.00, 46.00
1448412382, 14.00, 46.00
1448412402, 14.00, 46.00
1448412422, 14.00, 46.00
1448412442, 14.00, 46.00
1448412462, 14.00, 46.00
1448412482, 14.00, 46.00
1448412502, 14.00, 46.00
1448412522, 14.00, 46.00
1448412542, 14.00, 46.00
1448412562, 14.00, 46.00
1448412582, 14.00, 46.00
1448412602, 14.00, 46.00
1448412622, 14.00, 46.00
1448412642, 14.00, 46.00
1448412662, 14.00, 46.00
1448412682, 14.00, 46.00
1448412702, 14.00, 46.00
1448412722, 14.00, 46.00
1448412742, 14.00, 46.00
1448412762, 14.00, 46.00
1448412782, 14.00, 46.00
1448412802, 14.00, 46.00
1448412822, 14.00, 46.00
1448412842, 14.00, 46.00
1448412862, 14.00, 46.00
1448412882, 14.00, 46.00
1448412902, 14.00, 46.00
1448412922, 14.00, 46.00
1448412942, 14.00, 46.00
1448412962, 14.00, 46.00
1448412982, 14.00, 46.00
1448413002, 14.00, 46.00
1448413022, 14.00, 46.00
1448413042, 14.00, 46.00
1448413062, 14.00, 46.00
1448413082, 14.00, 46.00
1448413102, 14.00, 46.00
1448413122, 14.00, 46.00
1448413142, 14.00, 46.00
1448413162, 14.00, 46.00
1448413183, 14.00, 46.00
1448413203, 14.00, 46.00
1448413223, 14.00, 46.00
1448413243, 14.00, 46.00
1448413263, 14.00, 46.00
1448413283, 14.00, 46.00
1448413303, 14.00, 46.00
1448413323, 14.00, 46.00
1448413343, 14.00, 46.00
1448413363, 14.00, 46.00
1448413383, 14.00, 46.00
1448413403, 14.00, 47.00
1448413423, 14.00, 47.00
1448413443, 14.00, 47.00
1448413463, 14.00, 47.00
1448413483, 14.00, 47.00
1448413503, 14.00, 47.00
1448413523, 14.00, 47.00
1448413543, 14.00, 47.00
1448413563, 14.00, 47.00
1448413583, 14.00, 47.00
1448413603, 14.00, 47.00
1448413623, 14.00, 47.00
1448413643, 14.00, 47.00
1448413663, 14.00, 47.00
1448413683, 14.00, 47.00
1448413703, 14.00, 47.00
1448413723, 14.00, 47.00
1448413743, 14.00, 47.00
1448413763, 14.00, 47.00
1448413783, 14.00, 47.00
1448413803, 14.00, 47.00
1448413823, 14.00, 47.00
1448413843, 14.00, 48.00
1448413863, 14.00, 48.00
1448413883, 14.00, 48.00
1448413904, 14.00, 47.00
1448413924, 14.00, 48.00
1448413944, 14.00, 48.00
1448413964, 14.00, 48.00
1448413984, 14.00, 48.00
1448414004, 14.00, 48.00
1448414024, 14.00, 48.00
1448414044, 14.00, 48.00
1448414064, 14.00, 48.00
1448414084, 14.00, 48.00
1448414104, 14.00, 48.00
1448414124, 14.00, 49.00
1448414144, 14.00, 49.00
1448414164, 14.00, 49.00
1448414184, 14.00, 49.00
1448414204, 14.00, 49.00
1448414224, 14.00, 49.00
1448414244, 14.00, 49.00
1448414264, 14.00, 49.00
1448414284, 14.00, 49.00
1448414304, 14.00, 49.00
1448414324, 14.00, 49.00
1448414344, 14.00, 49.00
1448414364, 14.00, 49.00
1448414384, 14.00, 49.00
1448414404, 14.00, 49.00
1448414424, 14.00, 49.00
1448414444, 14.00, 49.00
1448414464, 14.00, 49.00
1448414484, 14.00, 49.00
